Location: Newark
(51.1667°N, 4.6667°W)
Time: 13:07:48
(UTC+00:00)

N. Korean satellite - Visible Passes

Search period start: 25 February 2020 00:00
Search period end: 06 March 2020 00:00
Orbit: 456 x 505 km, 97.2° (Epoch: 24 February)

Date Brightness Start Highest point End Pass type
(mag) Time Alt. Az. Time Alt. Az. Time Alt. Az.
25 Feb 10.0 05:00:31 10° ENE 05:02:22 13° E 05:04:13 10° ESE visible
25 Feb 6.6 06:32:27 10° N 06:36:10 63° WNW 06:39:49 10° SSW visible
26 Feb 7.1 06:06:54 10° NNE 06:10:38 67° ESE 06:14:17 10° S visible
27 Feb 8.5 05:41:32 10° NNE 05:44:59 35° E 05:48:23 10° SSE visible
28 Feb 9.6 05:16:31 10° NE 05:19:16 19° E 05:21:58 10° SE visible
29 Feb 10.3 04:52:33 10° ENE 04:53:26 11° E 04:54:19 10° E visible
29 Feb 6.6 06:23:37 10° N 06:27:21 79° WNW 06:31:01 10° SSW visible
01 Mar 7.5 05:58:06 10° NNE 06:01:46 53° E 06:05:21 10° S visible
02 Mar 8.9 05:32:50 10° NNE 05:36:05 28° E 05:39:17 10° SSE visible
03 Mar 9.9 05:08:00 10° NE 05:10:19 16° E 05:12:37 10° SE visible
04 Mar 6.7 06:14:45 10° NNE 06:18:29 83° ESE 06:22:07 10° SSW visible
05 Mar 8.0 05:49:19 10° NNE 05:52:52 42° E 05:56:20 10° S visible
